Weather History for KNYC - August, 2013

Change the Weather History Date:

Monday, August 26, 2013

  Actual Average Record
Temperature  
Mean Temperature 76 °F 74 °F  
Max Temperature 84 °F 81 °F 103 °F (1948)
Min Temperature 68 °F 67 °F 53 °F (1887)
Degree Days  
Heating Degree Days 0 0  
Month to date heating degree days 0 0  
Since 1 June heating degree days 9 19  
Since 1 July heating degree days 0 0  
Cooling Degree Days 11 9  
Month to date cooling degree days 238 273  
Year to date cooling degree days 1026 909  
Since 1 June cooling degree days 947 840  
Growing Degree Days 26 (Base 50)    
Moisture  
Dew Point 59 °F    
Average Humidity 70    
Maximum Humidity 93    
Minimum Humidity 46    
Precipitation  
Precipitation 0.04 in 0.12 in 3.24 in (1908)
Month to date precipitation 2.41 3.82  
Year to date precipitation 34.57 32.62  
Snow  
Snow 0.00 in 0.00 in 0.00 in (2002)
Month to date snowfall 0.0 0.0  
Since 1 July snowfall 0.0 0.0  
Snow Depth 0.00 in    
Sea Level Pressure  
Sea Level Pressure 30.07 in    
Wind  
Wind Speed 6 mph (WSW)    
Max Wind Speed 14 mph    
Max Gust Speed 22 mph    
Visibility 10 miles    
Events Rain    
T = Trace of Precipitation, MM = Missing Value Source: NWS Daily Summary

Daily Weather History Graph

Daily Weather History Graph

Search for Another Location

Airport or City:

Trip Planner

Search our weather history database for the weather conditions in past years. The results will help you decide how hot, cold, wet, or windy it might be!

Date:

Astronomy

Aug. 26, 2013 Rise Set
Actual Time 6:17 AM EDT 7:37 PM EDT
Civil Twilight 5:48 AM EDT 8:05 PM EDT
Nautical Twilight 5:14 AM EDT 8:39 PM EDT
Astronomical Twilight 4:38 AM EDT 9:15 PM EDT
Moon 10:43 PM EDT (8/26) 12:18 PM EDT (8/26)
Length of Visible Light 14h 17m
Length of Day
13h 20m
Waning Gibbous, 67% of the Moon is Illuminated
Aug 26
Waning Gibbous
Aug 28
Last Quarter
Sep 5
New
Sep 12
First Quarter
Sep 19
Full

Hourly Weather History & Observations

Time (EDT) Temp. Heat Index Dew Point Humidity Pressure Visibility Wind Dir Wind Speed Gust Speed Precip Events Conditions
12:51 AM 71.1 °F - 54.0 °F 55% 30.24 in 10.0 mi WSW 4.6 mph - N/A   Clear
1:51 AM 70.0 °F - 54.0 °F 57% 30.23 in 10.0 mi Variable 4.6 mph - N/A   Clear
3:51 AM 69.1 °F - 54.0 °F 58% 30.19 in 10.0 mi North - - N/A   Clear
4:51 AM 70.0 °F - 54.0 °F 57% 30.19 in 10.0 mi WSW 8.1 mph - N/A   Clear
5:51 AM 69.1 °F - 54.0 °F 58% 30.18 in 10.0 mi WSW 9.2 mph - N/A   Clear
6:51 AM 69.1 °F - 53.1 °F 57% 30.18 in 10.0 mi North - - N/A   Clear
7:51 AM 68.0 °F - 55.0 °F 63% 30.17 in 10.0 mi West 8.1 mph 20.7 mph N/A   Partly Cloudy
8:51 AM 69.1 °F - 55.0 °F 61% 30.16 in 10.0 mi West 8.1 mph - N/A   Scattered Clouds
9:51 AM 71.1 °F - 55.9 °F 59% 30.15 in 10.0 mi Variable 6.9 mph - N/A   Scattered Clouds
10:51 AM 75.0 °F - 57.0 °F 53% 30.13 in 10.0 mi SW 5.8 mph - N/A   Scattered Clouds
11:51 AM 75.9 °F - 57.9 °F 54% 30.10 in 10.0 mi WSW 8.1 mph 17.3 mph N/A   Mostly Cloudy
12:51 PM 82.0 °F 82.1 °F 59.0 °F 45% 30.08 in 10.0 mi North - - N/A   Mostly Cloudy
1:51 PM 81.0 °F 81.6 °F 60.1 °F 49% 30.05 in 10.0 mi Variable 3.5 mph 17.3 mph N/A   Partly Cloudy
2:51 PM 84.0 °F 84.5 °F 62.1 °F 47% 30.01 in 10.0 mi Calm Calm - N/A   Scattered Clouds
3:51 PM 80.1 °F 81.2 °F 62.1 °F 54% 30.00 in 9.0 mi Variable 5.8 mph - 0.00 in Rain Light Rain
4:51 PM 81.0 °F 81.9 °F 62.1 °F 52% 29.98 in 10.0 mi West 5.8 mph - 0.00 in   Clear
5:51 PM 80.1 °F 81.2 °F 62.1 °F 54% 29.98 in 10.0 mi Variable 6.9 mph - N/A   Overcast
6:51 PM 81.0 °F 82.2 °F 63.0 °F 54% 29.96 in 10.0 mi Variable 4.6 mph - N/A   Scattered Clouds
7:51 PM 80.1 °F 81.7 °F 64.0 °F 58% 29.96 in 10.0 mi Variable 3.5 mph - N/A   Overcast
8:51 PM 81.0 °F 82.5 °F 64.0 °F 56% 29.96 in 10.0 mi Variable 5.8 mph - N/A   Mostly Cloudy
9:51 PM 78.1 °F - 64.9 °F 64% 29.96 in 9.0 mi North - - 0.00 in Rain Light Rain
10:51 PM 75.0 °F - 66.9 °F 76% 29.94 in 8.0 mi West 5.8 mph - 0.02 in   Scattered Clouds
11:51 PM 72.0 °F - 69.1 °F 91% 29.92 in 6.0 mi North - - 0.02 in   Overcast